Weather History for KALN - October, 2013

Change the Weather History Date:

Sunday, October 20, 2013

  Actual Average Record
Temperature  
Mean Temperature 54 °F -  
Max Temperature 70 °F 66 °F 89 °F (2003)
Min Temperature 39 °F 44 °F 32 °F (2006)
Degree Days  
Heating Degree Days 11    
Growing Degree Days 4 (Base 50)    
Moisture  
Dew Point 38 °F    
Average Humidity 67    
Maximum Humidity 88    
Minimum Humidity 27    
Precipitation  
Precipitation 0.00 in - - ()
Sea Level Pressure  
Sea Level Pressure 29.93 in    
Wind  
Wind Speed 7 mph (South)    
Max Wind Speed 18 mph    
Max Gust Speed 28 mph    
Visibility 10 miles    
Events      
Averages and records for this station are not official NWS values.
T = Trace of Precipitation, MM = Missing Value Source: NWS Daily Summary

Daily Weather History Graph

Daily Weather History Graph

Search for Another Location

Airport or City:

Trip Planner

Search our weather history database for the weather conditions in past years. The results will help you decide how hot, cold, wet, or windy it might be!

Date:

Astronomy

Oct. 20, 2013 Rise Set
Actual Time 7:14 AM CDT 6:14 PM CDT
Civil Twilight 6:47 AM CDT 6:41 PM CDT
Nautical Twilight 6:16 AM CDT 7:12 PM CDT
Astronomical Twilight 5:45 AM CDT 7:43 PM CDT
Moon 7:24 PM CDT (10/20) 8:51 AM CDT (10/20)
Length of Visible Light 11h 53m
Length of Day
10h 59m
Full, 97% of the Moon is Illuminated
Oct 20
Full
Oct 26
Last Quarter
Nov 3
New
Nov 9
First Quarter
Nov 17
Full

Hourly Weather History & Observations

Time (CDT) Temp. Windchill Dew Point Humidity Pressure Visibility Wind Dir Wind Speed Gust Speed Precip Events Conditions
12:15 AM 43.3 °F 38.6 °F 37.6 °F 80% 29.97 in 10.0 mi South 8.1 mph - N/A   Clear
12:35 AM 43.0 °F 38.8 °F 37.6 °F 81% 29.97 in 10.0 mi South 6.9 mph - N/A   Clear
12:55 AM 42.8 °F 38.0 °F 37.6 °F 82% 29.96 in 10.0 mi South 8.1 mph - N/A   Clear
1:15 AM 42.8 °F 38.6 °F 37.6 °F 82% 29.96 in 10.0 mi SSW 6.9 mph - N/A   Clear
1:35 AM 43.5 °F 40.1 °F 37.8 °F 80% 29.96 in 10.0 mi South 5.8 mph - N/A   Clear
1:55 AM 42.8 °F 40.1 °F 37.6 °F 82% 29.96 in 10.0 mi South 4.6 mph - N/A   Clear
2:15 AM 42.1 °F 39.2 °F 37.2 °F 83% 29.96 in 10.0 mi South 4.6 mph - N/A   Clear
2:35 AM 42.3 °F - 37.4 °F 83% 29.95 in 10.0 mi Calm Calm - N/A   Clear
2:55 AM 42.8 °F 41.1 °F 37.4 °F 81% 29.95 in 10.0 mi South 3.5 mph - N/A   Clear
3:15 AM 42.1 °F 39.2 °F 37.4 °F 83% 29.95 in 10.0 mi SSW 4.6 mph - N/A   Clear
3:35 AM 42.1 °F 40.2 °F 37.8 °F 85% 29.94 in 10.0 mi South 3.5 mph - N/A   Clear
3:55 AM 41.7 °F 39.8 °F 37.4 °F 85% 29.94 in 10.0 mi South 3.5 mph - N/A   Clear
4:15 AM 42.1 °F - 37.4 °F 83% 29.93 in 10.0 mi Calm Calm - N/A   Clear
4:35 AM 42.8 °F - 37.8 °F 82% 29.93 in 10.0 mi Calm Calm - N/A   Clear
4:55 AM 41.9 °F - 37.8 °F 85% 29.93 in 10.0 mi Calm Calm - N/A   Clear
5:15 AM 40.8 °F 37.8 °F 37.2 °F 87% 29.94 in 10.0 mi SSW 4.6 mph - N/A   Clear
5:35 AM 41.9 °F - 37.0 °F 83% 29.94 in 10.0 mi Calm Calm - N/A   Clear
5:55 AM 39.7 °F 37.6 °F 36.5 °F 88% 29.94 in 10.0 mi SE 3.5 mph - N/A   Clear
6:15 AM 40.6 °F 37.5 °F 37.4 °F 88% 29.94 in 10.0 mi SSE 4.6 mph - N/A   Clear
6:35 AM 41.9 °F 39.0 °F 37.8 °F 85% 29.94 in 10.0 mi South 4.6 mph - N/A   Clear
6:50 AM 42.8 °F 37.5 °F 37.4 °F 81% 29.94 in 10.0 mi West 9.2 mph - N/A   Clear
6:55 AM 42.1 °F 39.2 °F 37.6 °F 84% 29.94 in 10.0 mi SSE 4.6 mph - N/A   Clear
9:50 AM 53.6 °F - 41.0 °F 62% 29.96 in 10.0 mi SSW 13.8 mph - N/A   Clear
10:50 AM 59.0 °F - 39.2 °F 48% 29.94 in 10.0 mi South 16.1 mph - N/A   Clear
11:50 AM 62.6 °F - 39.2 °F 42% 29.93 in 10.0 mi South 16.1 mph - N/A   Clear
12:50 PM 66.2 °F - 37.4 °F 35% 29.91 in 10.0 mi South 13.8 mph 23.0 mph N/A   Partly Cloudy
1:50 PM 68.0 °F - 35.6 °F 30% 29.87 in 10.0 mi South 13.8 mph 24.2 mph N/A   Partly Cloudy
2:50 PM 69.8 °F - 33.8 °F 27% 29.86 in 10.0 mi South 15.0 mph 27.6 mph N/A   Partly Cloudy
3:50 PM 69.8 °F - 35.6 °F 28% 29.86 in 10.0 mi South 17.3 mph 27.6 mph N/A   Partly Cloudy
4:50 PM 68.0 °F - 35.6 °F 30% 29.86 in 10.0 mi South 18.4 mph 27.6 mph N/A   Partly Cloudy
5:50 PM 66.2 °F - 35.6 °F 32% 29.87 in 10.0 mi SSW 16.1 mph 24.2 mph N/A   Scattered Clouds
6:50 PM 62.6 °F - 37.4 °F 39% 29.89 in 10.0 mi South 13.8 mph - N/A   Scattered Clouds
7:50 PM 59.0 °F - 39.2 °F 48% 29.90 in 10.0 mi South 13.8 mph - N/A   Scattered Clouds
8:50 PM 57.2 °F - 41.0 °F 55% 29.91 in 10.0 mi South 13.8 mph - N/A   Clear
9:50 PM 55.4 °F - 41.0 °F 58% 29.92 in 10.0 mi South 16.1 mph - N/A   Clear
10:15 PM 54.7 °F - 42.1 °F 62% 29.93 in 10.0 mi South 8.1 mph - N/A   Clear
10:35 PM 54.7 °F - 42.1 °F 62% 29.93 in 10.0 mi South 8.1 mph - N/A   Clear
10:55 PM 55.2 °F - 42.1 °F 61% 29.93 in 10.0 mi South 9.2 mph - N/A   Clear
11:15 PM 55.9 °F - 41.9 °F 59% 29.93 in 10.0 mi SSW 13.8 mph 18.4 mph N/A   Clear
11:35 PM 55.6 °F - 41.4 °F 59% 29.93 in 10.0 mi SSW 10.4 mph 18.4 mph N/A   Clear
11:55 PM 54.5 °F - 41.5 °F 62% 29.93 in 10.0 mi South 9.2 mph - N/A   Clear